Location: Unspecified
(0.0000°N, 0.0000°E)
Time: 16:09:01
(UTC+00:00)

N. Korean satellite - Pass Details

Date: 13 August 2017
Orbit: 462 x 516 km, 97.2° (Epoch: 18 August)

Event Time Altitude Azimuth Distance (km) Brightness Sun altitude
Rises 19:02:46 0° 189° (S) 2,486 10.1 -14.0°
Reaches altitude 10° 19:05:03 10° 204° (SSW) 1,610 9.3 -14.6°
Maximum altitude 19:07:54 24° 259° (W) 1,000 8.9 -15.3°
Drops below altitude 10° 19:10:45 10° 315° (NW) 1,614 10.1 -16.0°
Sets 19:13:03 0° 329° (NNW) 2,493 10.9 -16.5°
